Regional Weather Roundup
Issued by NWS

Home | Current Version | Previous Version | Text Only | Print | Product List | Glossary Off
Versions: 1 2 3 4 5 6 7 8 9 10 11 12 13 14 15 16 17 18 19 20 21 22 23 24 25 26 27 28 29 30 31 32 33 34 35 36 37 38 39 40 41 42 43 44 45 46 47 48 49 50

000
ASUS43 KIND 311159
RWRIN

WEATHER ROUNDUP FOR INDIANA
NATIONAL WEATHER SERVICE INDIANAPOLIS IN
800 AM EDT FRI OCT 31 2014

NOTE: "FAIR" INDICATES FEW OR NO CLOUDS BELOW 12,000 FEET WITH NO
SIGNIFICANT WEATHER AND/OR OBSTRUCTIONS TO VISIBILITY.

* - STATION DOES NOT REPORT WEATHER SUCH AS PRECIPITATION OR FOG.

+ - STATION NOT QUALITY CONTROLLED BY THE NATIONAL WEATHER SERVICE.
    USE DATA WITH CAUTION...ESPECIALLY DEWPOINT AND RELATIVE
    HUMIDITY OBSERVATIONS.

INZ001>003-010>013-019-020-311300-
NORTHWEST INDIANA

CITY           SKY/WX    TMP DP  RH WIND       PRES   REMARKS
GARY /AIRPORT/ CLOUDY    43  32  65 NW26      30.05R
VALPARAISO     NOT AVBL

$$

LMZ046-743>745-311300-
SOUTHERN LAKE MICHIGAN

STATION/POSITION TIME  TEMP WIND        PRES
                       AIR  DIR/SP/G
                 (UTC) (F)  (DEG/KT/KT) (MB)
MICHIGAN CITY    1100   42  320/ 26/ 33   N/A

$$

INZ004-005-014>016-021>024-311300-
NORTH CENTRAL INDIANA

CITY           SKY/WX    TMP DP  RH WIND       PRES   REMARKS
ELKHART        RAIN      39  37  93 NW8       29.97S
GOSHEN         LGT RAIN  42  38  85 NW14      29.95R
6HR MIN TEMP:  42; 6HR MAX TEMP:  45; 6HR PCP:  0.07;

PERU/GRISSOM   LGT RAIN  43  43 100 NW9       29.97S
SOUTH BEND     LGT RAIN  41  37  86 NW14      29.98S
6HR MIN TEMP:  41; 6HR MAX TEMP:  45; 6HR PCP:  0.09;


$$

INZ006>009-017-018-025>027-311300-
NORTHEAST INDIANA

CITY           SKY/WX    TMP DP  RH WIND       PRES   REMARKS
ANGOLA *+        N/A     43  41  93 W5        29.91F
FORT WAYNE     LGT RAIN  43  38  82 W8        29.95S
6HR MIN TEMP:  41; 6HR MAX TEMP:  43; 6HR PCP: TRACE;


$$

INZ028-029-035-036-043>045-051>053-311300-
WEST CENTRAL INDIANA

CITY           SKY/WX    TMP DP  RH WIND       PRES   REMARKS
GREENCASTLE +  CLOUDY    43  37  81 NW5       30.01S
LAFAYETTE      LGT RAIN  43  40  89 NW15      30.01R
6HR MIN TEMP:  41; 6HR MAX TEMP:  44; 6HR PCP: TRACE;

TERRE HAUTE    CLOUDY    45  41  86 NW9       30.03S
6HR MIN TEMP:  42; 6HR MAX TEMP:  47;


$$

INZ030>032-037>040-046>048-054>057-064-065-311300-
CENTRAL INDIANA

CITY           SKY/WX    TMP DP  RH WIND       PRES   REMARKS
COLUMBUS       CLOUDY    41  41 100 NW6       29.99F
INDIANAPOLIS   NOT AVBL
-EAGLE CREEK   CLOUDY    46  38  73 NW8       29.98F
6HR MIN TEMP:  45; 6HR MAX TEMP:  47;

KOKOMO *+      CLOUDY    43  37  81 NW10      29.98S
MT COMFORT *+  CLOUDY    43  36  75 W3        29.98S
SHELBYVILLE    CLOUDY    46  38  73 W7        29.98S
6HR MIN TEMP:  43; 6HR MAX TEMP:  48;


$$

INZ033-034-041-042-049-050-058-059-311300-
EAST CENTRAL INDIANA

CITY           SKY/WX    TMP DP  RH WIND       PRES   REMARKS
MUNCIE         CLOUDY    43  37  79 W6        29.96F
6HR MIN TEMP:  42; 6HR MAX TEMP:  45;


$$

INZ060-061-067>069-081>083-085>088-311300-
SOUTHWEST INDIANA

CITY           SKY/WX    TMP DP  RH WIND       PRES   REMARKS
EVANSVILLE     CLOUDY    48  44  86 VRB5      30.05R
6HR MIN TEMP:  48; 6HR MAX TEMP:  51; 6HR PCP:  0.01;

HUNTINGBURG *+ MOCLDY    46  43  87 N6        30.04R
6HR MIN TEMP:  46; 6HR MAX TEMP:  48;


$$

INZ062-063-066-070>080-084-089>092-311300-
SOUTH CENTRAL AND SOUTHEAST INDIANA

CITY           SKY/WX    TMP DP  RH WIND       PRES   REMARKS
BLOOMINGTON    CLOUDY    44  41  89 NW3       30.01S
6HR MIN TEMP:  41; 6HR MAX TEMP:  46;


$$




USA.gov is the U.S. government's official web portal to all federal, state and local government web resources and services.